Regional Weather Roundup
Issued by NWS

Home | Current Version | Previous Version | Graphics & Text | Print | Product List | Glossary On
Versions: 1 2 3 4 5 6 7 8 9 10 11 12 13 14 15 16 17 18 19 20 21 22 23 24 25 26 27 28 29 30 31 32 33 34 35 36 37 38 39 40 41 42 43 44 45 46 47 48 49 50
000
ASUS43 KIND 071409
RWRIN

WEATHER ROUNDUP FOR INDIANA
NATIONAL WEATHER SERVICE INDIANAPOLIS IN
1000 AM EDT TUE JUL 07 2015

NOTE: "FAIR" INDICATES FEW OR NO CLOUDS BELOW 12,000 FEET WITH NO
SIGNIFICANT WEATHER AND/OR OBSTRUCTIONS TO VISIBILITY.

* - STATION DOES NOT REPORT WEATHER SUCH AS PRECIPITATION OR FOG.

+ - STATION NOT QUALITY CONTROLLED BY THE NATIONAL WEATHER SERVICE.
    USE DATA WITH CAUTION...ESPECIALLY DEWPOINT AND RELATIVE
    HUMIDITY OBSERVATIONS.

INZ001>003-010>013-019-020-071500-
NORTHWEST INDIANA

CITY           SKY/WX    TMP DP  RH WIND       PRES   REMARKS
GARY /AIRPORT/ RAIN      59  57  94 N13G32    29.98R
KNOX *+        CLOUDY    61  61 100 NW9       29.92R
LA PORTE +     DRIZZLE  N/A N/A N/A N13G18    29.94R
MICHIGAN CITY+ DRIZZLE   59  59 100 NW10G16   29.96R
MONTICELLO +   CLOUDY    73  72  99 W3        29.88F
RENSSELAER +   LGT RAIN  61  61 100 N16       29.92R
VALPARAISO     LGT RAIN  58  56  93 N10G21    29.95R

$$

LMZ046-743>745-071500-
SOUTHERN LAKE MICHIGAN

STATION/POSITION TIME  TEMP    WIND        PRES    WAVE
                       AIR SEA DIR/SP/G            HT
                 (UTC) (F)     (DEG/KT/KT) (MB)    (FT)
BURNS HARBOR     1400   59     360/ 19/ 23 1015.2R
MICHIGAN CITY    1400   58     330/ 22/ 26   N/A
5NW MICH CITY    1400   59 65   10/ 17/ 23   N/A     7

$$

INZ004-005-014>016-021>024-071500-
NORTH CENTRAL INDIANA

CITY           SKY/WX    TMP DP  RH WIND       PRES   REMARKS
ELKHART        LGT RAIN  66  66 100 W12       29.90R
GOSHEN         LGT RAIN  72  70  93 SW6       29.88S
LOGANSPORT +   LGT RAIN  72  68  88 CALM      29.89F
PERU/GRISSOM   LGT RAIN  72  71  97 S6        29.89S
ROCHESTER +    LGT RAIN  73  73 100 SW3       29.89F
SOUTH BEND     LGT RAIN  63  61  93 NW12      29.92R
WARSAW +       RAIN      70  70 100 CALM      29.89S

$$

INZ006>009-017-018-025>027-071500-
NORTHEAST INDIANA

CITY           SKY/WX    TMP DP  RH WIND       PRES   REMARKS
ANGOLA *+      CLOUDY    72  63  73 SW6       29.88F
AUBURN +       LGT RAIN  72  68  88 CALM      29.90F
FORT WAYNE     LGT RAIN  72  68  87 SW14      29.90S VSB 1
HUNTINGTON +   LGT RAIN  70  69  95 SW8       29.90R

$$

INZ028-029-035-036-043>045-051>053-071500-
WEST CENTRAL INDIANA

CITY           SKY/WX    TMP DP  RH WIND       PRES   REMARKS
CRAWFORDSVL +  CLOUDY    71  70  95 CALM      29.91R
GREENCASTLE +  CLOUDY    73  70  88 S5        29.92S HAZE
LAFAYETTE      CLOUDY    74  72  93 W3        29.88F
TERRE HAUTE    CLOUDY    77  73  87 S9        29.91R

$$

INZ030>032-037>040-046>048-054>057-064-065-071500-
CENTRAL INDIANA

CITY           SKY/WX    TMP DP  RH WIND       PRES   REMARKS
ANDERSON       CLOUDY    77  70  78 S12       29.93F
CP ATTERBURY + CLOUDY    77  72  83 S10       29.95S HAZE
COLUMBUS       PTSUNNY   75  72  88 S14       29.95F
FISHERS *+     CLOUDY    77  73  88 S8G16     29.92
FRANKFORT +    CLOUDY   N/A N/A N/A MISG      29.92F
GREENWOOD *+   CLOUDY    77  70  78 S8        29.94S
INDIANAPOLIS   CLOUDY    77  71  82 S13       29.92S
-EAGLE CREEK   RAIN      77  73  87 S6G17     29.91S FOG
KOKOMO *+      CLOUDY    72  68  88 SW6       29.92R
MARION +       CLOUDY    75  73  91 S9        29.91S
MT COMFORT *+  CLOUDY    77 N/A N/A SW8       29.93S
SHELBYVILLE    CLOUDY    79  73  82 S12       29.93S
ZIONSVILLE +   HVY RAIN  76  71  83 S9        29.92S

$$

INZ033-034-041-042-049-050-058-059-071500-
EAST CENTRAL INDIANA

CITY           SKY/WX    TMP DP  RH WIND       PRES   REMARKS
MUNCIE         CLOUDY    78  72  81 SW13G21   29.92S

$$

INZ060-061-067>069-081>083-085>088-071500-
SOUTHWEST INDIANA

CITY           SKY/WX    TMP DP  RH WIND       PRES   REMARKS
EVANSVILLE     HVY RAIN  73  71  93 W3        29.97R FOG
WASHINGTON +   CLOUDY    76  71  82 S10G17    29.95R

$$

INZ062-063-066-070>080-084-089>092-071500-
SOUTH CENTRAL AND SOUTHEAST INDIANA

CITY           SKY/WX    TMP DP  RH WIND       PRES   REMARKS
BLOOMINGTON    LGT RAIN  76  72  87 S10       29.95R
MADISON *+     CLOUDY    75  70  83 S9        30.02S
NORTH VERNON + RAIN      75  75 100 S5        29.98S
SEYMOUR +      LGT RAIN  75  73  94 S5        29.97S

$$



USA.gov is the U.S. government's official web portal to all federal, state and local government web resources and services.